Date String (YYYY-MM-DD hh:mm:ss) UTC,Instrument flags,Ambient pressure (hPa),Sample flow (lpm),Bypass flow (lpm),Sample temperature (°C),Ambient temperature (°C),ASC tube jacket temperature (°C),LED temperature (°C),Box temperature (°C),Sample RH (%),Span deviation,Mass concentration (μg/m³),Mass concentration (μg/m³),Mass concentration (μg/m³)
DateTimeUTC,F1_M11,P_M11,Q1_M11,Q2_M11,T1_M11,T2_M11,T3_M11,T4_M11,T5_M11,U1_M11,ZSPAN_M11,X0_M11,X2_M11,X1_M11
2022-01-03 11:00:00,,0826.6,5.00,0.00,21.6,21.4,00.0,30.7,23.1,09.4,0000.0,0000.67,0000.04,0000.01
2022-01-03 11:01:00,,0826.7,5.00,0.00,21.6,21.2,00.0,30.7,23.1,09.4,0000.0,0000.67,0000.04,0000.01
2022-01-03 11:02:00,,0826.7,5.01,0.00,21.6,21.1,00.0,30.7,23.2,08.5,0000.0,0000.66,0000.04,0000.01
2022-01-03 11:03:00,,0826.7,5.01,0.00,21.6,21.1,00.0,30.7,23.2,08.9,0000.0,0000.68,0000.05,0000.01
2022-01-03 11:04:00,,0826.7,4.99,0.00,21.6,21.1,00.0,30.7,23.2,08.9,0000.0,0000.70,0000.06,0000.01
2022-01-03 11:05:00,,0826.7,5.01,0.00,21.6,21.1,00.0,30.7,23.3,08.6,0000.0,0000.69,0000.06,0000.01
2022-01-03 11:06:00,,0826.7,5.00,0.00,21.6,21.0,00.0,30.7,23.3,07.9,0000.0,0000.80,0000.05,0000.00
2022-01-03 11:07:00,,0826.7,4.99,0.00,21.6,21.0,00.0,30.7,23.2,07.9,0000.0,0000.78,0000.04,0000.00
2022-01-03 11:08:00,,0826.6,5.00,0.00,21.6,21.0,00.0,30.7,23.2,08.1,0000.0,0000.77,0000.03,0000.00
2022-01-03 11:09:00,,0826.6,4.99,0.00,21.6,21.0,00.0,30.7,23.2,07.9,0000.0,0000.79,0000.04,0000.00
2022-01-03 11:10:00,,0826.6,5.01,0.00,21.6,21.0,00.0,30.7,23.2,09.2,0000.0,0000.47,0000.04,0000.00
2022-01-03 11:11:00,,0826.6,5.00,0.00,21.6,21.0,00.0,30.7,23.2,09.5,0000.0,0000.23,0000.04,0000.00
2022-01-03 11:12:00,,0826.7,4.98,0.00,21.6,21.0,00.0,30.7,23.3,09.4,0000.0,0000.23,0000.04,0000.00
2022-01-03 11:13:00,,0826.6,5.00,0.00,21.6,21.0,00.0,30.7,23.3,09.5,0000.0,0000.23,0000.04,0000.00
2022-01-03 11:14:00,,0826.5,5.00,0.00,21.6,21.0,00.0,30.6,23.3,09.5,0000.0,0000.22,0000.04,0000.00
2022-01-03 11:15:00,,0826.5,5.01,0.00,21.6,21.1,00.0,30.6,23.3,09.6,0000.0,0000.21,0000.02,0000.00
2022-01-03 11:16:00,,0826.5,5.00,0.00,21.6,21.4,00.0,30.7,23.4,09.1,0000.0,0000.31,0000.03,0000.00
2022-01-03 11:17:00,,0826.5,4.99,0.00,21.8,22.2,00.0,30.7,23.7,08.3,0000.0,0000.21,0000.02,0000.00
2022-01-03 11:18:00,,0826.5,5.00,0.00,21.9,23.0,00.0,30.8,24.0,08.8,0000.0,0000.16,0000.02,0000.00
2022-01-03 11:19:00,,0826.5,4.99,0.00,22.1,23.0,00.0,30.8,24.0,08.9,0000.0,0000.16,0000.02,0000.00
2022-01-03 11:20:00,,0826.4,5.01,0.00,22.1,22.7,00.0,30.8,24.0,08.9,0000.0,0000.15,0000.02,0000.00
2022-01-03 11:21:00,,0826.2,5.00,0.00,22.1,22.4,00.0,30.9,23.9,08.9,0000.0,0000.11,0000.01,0000.00
2022-01-03 11:22:00,,0826.2,5.00,0.00,22.0,22.1,00.0,30.9,23.8,08.5,0000.0,0000.16,0000.03,0000.00
2022-01-03 11:23:00,,0826.2,4.99,0.00,22.0,21.9,00.0,30.9,23.7,08.4,0000.0,0000.18,0000.04,0000.00
2022-01-03 11:24:00,,0825.9,4.99,0.00,22.0,21.8,00.0,30.9,23.6,08.3,0000.0,0000.21,0000.05,0000.00
2022-01-03 11:25:00,,0825.9,5.01,0.00,21.9,21.6,00.0,30.9,23.5,08.2,0000.0,0000.22,0000.06,0000.00
2022-01-03 11:26:00,,0825.9,4.99,0.00,21.9,21.4,00.0,30.9,23.4,08.2,0000.0,0000.22,0000.06,0000.00
2022-01-03 11:27:00,,0826.1,5.01,0.00,21.8,21.2,00.0,30.9,23.4,08.6,0000.0,0000.11,0000.05,0000.00
2022-01-03 11:28:00,,0826.1,4.99,0.00,21.8,21.1,00.0,30.9,23.3,08.9,0000.0,0000.11,0000.05,0000.00
2022-01-03 11:29:00,,0826.0,5.01,0.00,21.7,21.0,00.0,30.8,23.2,08.7,0000.0,0000.11,0000.05,0000.00
2022-01-03 11:30:00,,0826.0,5.00,0.00,21.6,20.8,00.0,30.8,23.2,08.7,0000.0,0000.16,0000.06,0000.00
2022-01-03 11:31:00,,0826.0,5.00,0.00,21.6,20.6,00.0,30.8,23.1,08.8,0000.0,0000.20,0000.06,0000.00
2022-01-03 11:32:00,,0826.0,5.00,0.00,21.5,20.6,00.0,30.8,23.0,08.7,0000.0,0000.20,0000.06,0000.00
2022-01-03 11:33:00,,0826.0,4.99,0.00,21.5,20.5,00.0,30.7,23.0,08.8,0000.0,0000.15,0000.04,0000.00
2022-01-03 11:34:00,,0826.0,5.02,0.00,21.5,20.6,00.0,30.7,23.0,08.7,0000.0,0000.13,0000.03,0000.00
2022-01-03 11:35:00,,0826.0,4.99,0.00,21.5,21.2,00.0,30.7,23.2,08.5,0000.0,0000.10,0000.02,0000.00
2022-01-03 11:36:00,,0826.1,5.00,0.00,21.7,22.2,00.0,30.7,23.6,08.0,0000.0,0000.09,0000.01,0000.00
2022-01-03 11:37:00,,0826.2,5.00,0.00,21.9,22.9,00.0,30.8,23.9,08.4,0000.0,0000.09,0000.02,0000.00
2022-01-03 11:38:00,,0826.1,4.99,0.00,21.9,22.7,00.0,30.8,23.8,08.9,0000.0,0000.09,0000.02,0000.00
2022-01-03 11:39:00,,0826.2,5.02,0.00,22.0,22.4,00.0,30.8,23.8,08.8,0000.0,0000.54,0000.02,0000.00
2022-01-03 11:40:00,,0826.2,5.00,0.00,22.0,22.2,00.0,30.9,23.7,09.1,0000.0,0001.32,0000.02,0000.00
2022-01-03 11:41:00,,0826.4,4.99,0.00,21.9,21.9,00.0,30.9,23.7,09.2,0000.0,0001.30,0000.02,0000.00
2022-01-03 11:42:00,,0826.4,5.00,0.00,21.9,21.7,00.0,30.9,23.6,10.1,0000.0,0001.42,0000.03,0000.00
2022-01-03 11:43:00,,0826.4,5.00,0.00,21.8,21.5,00.0,30.9,23.4,10.1,0000.0,0001.50,0000.03,0000.00
2022-01-03 11:44:00,,0826.5,5.00,0.00,21.8,21.2,00.0,30.9,23.3,10.1,0000.0,0001.50,0000.03,0000.00
2022-01-03 11:45:00,,0826.5,5.00,0.00,21.7,21.0,00.0,30.8,23.1,10.2,0000.0,0001.52,0000.04,0000.00
2022-01-03 11:46:00,,0826.5,5.00,0.00,21.6,20.8,00.0,30.8,23.0,10.1,0000.0,0001.53,0000.05,0000.00
2022-01-03 11:47:00,,0826.5,5.01,0.00,21.5,20.7,00.0,30.8,23.0,10.3,0000.0,0001.53,0000.05,0000.00
2022-01-03 11:48:00,,0826.5,4.99,0.00,21.4,20.5,00.0,30.7,22.9,10.2,0000.0,0001.53,0000.05,0000.00
2022-01-03 11:49:00,,0826.5,5.00,0.00,21.4,20.4,00.0,30.7,22.8,09.5,0000.0,0001.60,0000.05,0000.00
2022-01-03 11:50:00,,0826.5,5.00,0.00,21.4,20.7,00.0,30.7,22.9,09.3,0000.0,0001.84,0000.05,0000.00
2022-01-03 11:51:00,,0826.4,5.00,0.00,21.5,21.6,00.0,30.7,23.2,08.9,0000.0,0000.70,0000.05,0000.00
2022-01-03 11:52:00,,0826.5,5.00,0.00,21.7,22.6,00.0,30.7,23.6,08.6,0000.0,0000.73,0000.06,0000.00
2022-01-03 11:53:00,,0826.5,5.00,0.00,21.8,22.8,00.0,30.8,23.8,08.7,0000.0,0000.57,0000.04,0000.00
2022-01-03 11:54:00,,0826.5,5.01,0.00,21.9,22.4,00.0,30.8,23.7,08.7,0000.0,0000.48,0000.04,0000.00
2022-01-03 11:55:00,,0826.5,5.00,0.00,21.8,22.0,00.0,30.8,23.6,08.3,0000.0,0000.51,0000.05,0000.00
2022-01-03 11:56:00,,0826.5,4.99,0.00,21.8,21.7,00.0,30.8,23.6,08.5,0000.0,0000.50,0000.04,0000.00
2022-01-03 11:57:00,,0826.5,5.00,0.00,21.8,21.6,00.0,30.8,23.5,08.7,0000.0,0000.50,0000.04,0000.00
2022-01-03 11:58:00,,0826.5,5.00,0.00,21.8,21.6,00.0,30.8,23.5,08.7,0000.0,0000.57,0000.04,0000.00
2022-01-03 11:59:00,,0826.5,5.02,0.00,21.8,21.5,00.0,30.8,23.5,08.7,0000.0,0001.52,0000.04,0000.00
